TimeEDT,TemperatureF,Dew PointF,Humidity,Sea Level PressureIn,VisibilityMPH,Wind Direction,Wind SpeedMPH,Gust SpeedMPH,PrecipitationIn,Events,Conditions,WindDirDegrees,DateUTC
12:14 AM,48.0,31.1,52,30.33,10.0,NW,5.8,-,N/A,,Clear,310,2013-05-26 04:14:00
12:34 AM,45.5,32.0,59,30.33,10.0,NW,3.5,-,N/A,,Clear,310,2013-05-26 04:34:00
12:55 AM,44.8,32.9,63,30.32,10.0,NNW,3.5,-,N/A,,Clear,340,2013-05-26 04:55:00
1:14 AM,43.5,33.3,67,30.32,10.0,North,5.8,-,N/A,,Clear,360,2013-05-26 05:14:00
1:34 AM,44.6,33.3,64,30.32,10.0,North,6.9,-,N/A,,Clear,360,2013-05-26 05:34:00
1:54 AM,44.2,32.9,64,30.32,10.0,North,5.8,-,N/A,,Clear,360,2013-05-26 05:54:00
2:14 AM,43.0,33.1,68,30.32,10.0,North,5.8,-,N/A,,Clear,10,2013-05-26 06:14:00
2:35 AM,41.9,33.4,72,30.33,10.0,North,5.8,-,N/A,,Clear,350,2013-05-26 06:35:00
2:54 AM,41.0,33.8,76,30.33,10.0,North,6.9,-,N/A,,Clear,10,2013-05-26 06:54:00
3:14 AM,41.0,34.0,76,30.33,10.0,NNE,8.1,-,N/A,,Clear,30,2013-05-26 07:14:00
3:35 AM,41.9,34.0,73,30.33,10.0,NNE,6.9,-,N/A,,Clear,30,2013-05-26 07:35:00
3:54 AM,41.9,34.2,74,30.33,10.0,NE,5.8,-,N/A,,Clear,40,2013-05-26 07:54:00
4:14 AM,41.0,34.2,77,30.32,10.0,ENE,8.1,-,N/A,,Clear,60,2013-05-26 08:14:00
4:35 AM,41.9,34.0,73,30.32,10.0,ENE,9.2,-,N/A,,Clear,70,2013-05-26 08:35:00
4:54 AM,43.0,33.4,69,30.32,10.0,East,8.1,-,N/A,,Clear,80,2013-05-26 08:54:00
5:14 AM,44.2,33.8,67,30.33,10.0,ENE,8.1,-,N/A,,Clear,60,2013-05-26 09:14:00
5:35 AM,43.3,33.8,69,30.33,10.0,ENE,8.1,-,N/A,,Clear,70,2013-05-26 09:35:00
5:54 AM,43.0,33.8,70,30.34,10.0,ENE,8.1,-,N/A,,Clear,70,2013-05-26 09:54:00
6:14 AM,42.3,33.6,71,30.35,10.0,ENE,4.6,-,N/A,,Clear,60,2013-05-26 10:14:00
6:34 AM,41.4,34.2,76,30.36,10.0,NE,4.6,-,N/A,,Clear,50,2013-05-26 10:34:00
6:54 AM,42.3,35.4,77,30.37,10.0,NE,4.6,-,N/A,,Clear,50,2013-05-26 10:54:00
7:14 AM,46.2,34.7,64,30.36,10.0,ENE,5.8,-,N/A,,Clear,70,2013-05-26 11:14:00
7:35 AM,49.5,34.0,55,30.36,10.0,East,6.9,-,N/A,,Clear,80,2013-05-26 11:35:00
7:54 AM,50.4,33.6,53,30.36,10.0,East,3.5,-,N/A,,Clear,80,2013-05-26 11:54:00
8:15 AM,51.6,32.2,47,30.36,10.0,East,6.9,-,N/A,,Clear,90,2013-05-26 12:15:00
8:34 AM,52.7,32.2,46,30.36,10.0,East,5.8,-,N/A,,Clear,90,2013-05-26 12:34:00
8:54 AM,54.0,31.3,42,30.38,10.0,ESE,4.6,-,N/A,,Clear,110,2013-05-26 12:54:00
9:15 AM,55.8,27.9,34,30.38,10.0,ESE,4.6,-,N/A,,Clear,110,2013-05-26 13:15:00
9:34 AM,55.9,27.0,33,30.39,10.0,East,3.5,-,N/A,,Clear,100,2013-05-26 13:34:00
9:54 AM,55.6,30.2,38,30.38,10.0,ESE,4.6,-,N/A,,Clear,110,2013-05-26 13:54:00
10:15 AM,55.6,29.8,37,30.38,10.0,SE,6.9,-,N/A,,Clear,140,2013-05-26 14:15:00
10:34 AM,56.1,28.4,35,30.38,10.0,SE,4.6,-,N/A,,Clear,140,2013-05-26 14:34:00
10:54 AM,56.7,30.0,36,30.37,10.0,ESE,5.8,-,N/A,,Clear,120,2013-05-26 14:54:00
11:14 AM,56.3,30.2,37,30.36,10.0,East,4.6,-,N/A,,Clear,100,2013-05-26 15:14:00
11:34 AM,57.7,29.1,34,30.36,10.0,ENE,3.5,-,N/A,,Clear,60,2013-05-26 15:34:00
11:54 AM,59.0,28.6,31,30.36,10.0,ENE,3.5,-,N/A,,Clear,60,2013-05-26 15:54:00
12:14 PM,59.0,27.0,29,30.36,10.0,Calm,Calm,-,N/A,,Clear,0,2013-05-26 16:14:00
12:34 PM,60.4,28.4,30,30.35,10.0,East,5.8,-,N/A,,Clear,100,2013-05-26 16:34:00
12:54 PM,60.8,27.7,28,30.34,10.0,ENE,4.6,-,N/A,,Clear,70,2013-05-26 16:54:00
1:14 PM,62.2,28.4,28,30.34,10.0,NE,5.8,-,N/A,,Clear,50,2013-05-26 17:14:00
1:34 PM,61.5,27.5,28,30.34,10.0,ENE,4.6,-,N/A,,Clear,60,2013-05-26 17:34:00
1:55 PM,61.9,28.0,28,30.33,10.0,East,5.8,-,N/A,,Clear,90,2013-05-26 17:55:00
2:14 PM,62.2,27.7,27,30.32,10.0,ESE,6.9,-,N/A,,Clear,110,2013-05-26 18:14:00
2:34 PM,62.8,27.3,26,30.31,10.0,SE,3.5,-,N/A,,Clear,130,2013-05-26 18:34:00
2:55 PM,62.6,28.2,27,30.32,10.0,South,10.4,-,N/A,,Clear,170,2013-05-26 18:55:00
3:14 PM,61.2,27.5,28,30.31,10.0,SSE,5.8,-,N/A,,Clear,150,2013-05-26 19:14:00
3:34 PM,60.8,26.4,27,30.31,10.0,SSE,4.6,-,N/A,,Clear,160,2013-05-26 19:34:00
3:55 PM,61.7,25.5,25,30.30,10.0,SSE,8.1,-,N/A,,Clear,160,2013-05-26 19:55:00
4:14 PM,62.6,27.9,27,30.30,10.0,South,5.8,-,N/A,,Clear,180,2013-05-26 20:14:00
4:34 PM,62.1,26.1,25,30.29,10.0,South,5.8,-,N/A,,Clear,180,2013-05-26 20:34:00
4:55 PM,63.0,27.9,27,30.28,10.0,South,5.8,-,N/A,,Clear,170,2013-05-26 20:55:00
5:14 PM,62.8,27.1,26,30.28,10.0,South,5.8,-,N/A,,Clear,190,2013-05-26 21:14:00
5:34 PM,63.1,28.9,28,30.28,10.0,SSW,5.8,-,N/A,,Clear,200,2013-05-26 21:34:00
5:55 PM,62.8,28.0,27,30.27,10.0,SSW,4.6,-,N/A,,Clear,200,2013-05-26 21:55:00
6:14 PM,63.3,27.3,26,30.27,10.0,South,3.5,-,N/A,,Clear,180,2013-05-26 22:14:00
6:34 PM,63.9,28.8,27,30.26,10.0,SSW,3.5,-,N/A,,Clear,200,2013-05-26 22:34:00
6:55 PM,63.7,27.9,26,30.26,10.0,Calm,Calm,-,N/A,,Clear,0,2013-05-26 22:55:00
7:14 PM,63.7,28.0,26,30.26,10.0,SSW,3.5,-,N/A,,Clear,200,2013-05-26 23:14:00
7:34 PM,63.0,28.4,27,30.25,10.0,South,3.5,-,N/A,,Clear,190,2013-05-26 23:34:00
7:55 PM,61.9,27.9,28,30.25,10.0,Calm,Calm,-,N/A,,Clear,0,2013-05-26 23:55:00
8:14 PM,60.6,28.9,30,30.25,10.0,Calm,Calm,-,N/A,,Clear,0,2013-05-27 00:14:00
8:34 PM,59.4,28.9,31,30.24,10.0,Calm,Calm,-,N/A,,Clear,0,2013-05-27 00:34:00
8:55 PM,57.7,31.6,37,30.24,10.0,West,3.5,-,N/A,,Clear,260,2013-05-27 00:55:00
9:14 PM,55.6,32.7,42,30.24,10.0,Calm,Calm,-,N/A,,Clear,0,2013-05-27 01:14:00
9:34 PM,54.0,34.0,47,30.23,10.0,WSW,3.5,-,N/A,,Clear,240,2013-05-27 01:34:00
9:55 PM,52.7,34.0,49,30.24,10.0,SW,4.6,-,N/A,,Clear,230,2013-05-27 01:55:00
10:14 PM,52.2,34.9,52,30.24,10.0,SW,4.6,-,N/A,,Clear,220,2013-05-27 02:14:00
10:34 PM,51.8,34.9,53,30.24,10.0,Calm,Calm,-,N/A,,Clear,0,2013-05-27 02:34:00
10:54 PM,51.1,33.6,51,30.24,10.0,Calm,Calm,-,N/A,,Clear,0,2013-05-27 02:54:00
11:14 PM,50.5,32.0,49,30.25,10.0,North,5.8,-,N/A,,Clear,350,2013-05-27 03:14:00
11:35 PM,50.2,31.8,49,30.25,10.0,North,4.6,-,N/A,,Clear,350,2013-05-27 03:35:00
11:54 PM,49.1,32.4,53,30.25,10.0,North,5.8,-,N/A,,Clear,360,2013-05-27 03:54:00